Miscellaneous Local Product
Issued by NWS North Platte, NE

Home | Current Version | Previous Version | Text Only | Print | Product List | Glossary On
Versions: 1 2 3 4 5 6 7 8 9 10 11 12 13 14 15 16 17 18 19 20 21 22 23 24 25 26 27 28 29 30 31 32 33 34 35 36 37 38 39 40 41 42 43 44 45 46 47 48 49 50
000
AXUS43 KLBF 032310
MISLBF


WESTERN AND NORTH CENTRAL NEBRASKA HOURLY WEATHER ROUNDUP
NATIONAL WEATHER SERVICE NORTH PLATTE NE
500 PM CST TUE MAR 03 2015

***STATIONS NOT REPORTING VARIABLES SUCH AS SKY/WEATHER OR
PRESSURE ARE PROVIDED BY THE NEBRASKA DEPARTMENT OF
ROADS...RAWS...AND APRS NETWORKS...AND ARE NOT UNDER
NATIONAL WEATHER SERVICE QUALITY CONTROL***

...OBSERVATIONS IN AND NEAR THE EASTERN PANHANDLE OF NEBRASKA...

CITY           SKY/WX    TMP DP  RH WIND       PRES   REMARKS
PINE RIDGE     CLOUDY    17   4  56 NE8       29.96S WCI   7
CHADRON        LGT SNOW  17  10  74 E3        29.96F
ALLIANCE       FLURRIES  19  10  68 NW10      29.91R WCI   7
SIDNEY         CLOUDY    22   8  55 N9        29.88S WCI  12
WHITECLAY        N/A     16   4  59 N3          N/A
CRESCENT LAKE    N/A     20   7  56 N7          N/A  WCI  11
LISCO            N/A     27   9  46 NW10        N/A  WCI  17
BIG SPRINGS      N/A     27  10  48 N6          N/A  WCI  21
LEWELLEN         N/A     25   0  34 N5          N/A  WCI  19
$$

...OBSERVATIONS IN NORTH CENTRAL NEBRASKA...

CITY           SKY/WX    TMP DP  RH WIND       PRES   REMARKS
VALENTINE      CLOUDY    19   4  51 N16       30.00S WCI   4
THEDFORD       PTSUNNY   24   6  47 N18       29.96F WCI   9
AINSWORTH      CLOUDY    19   6  55 N16G22    29.99F WCI   5
O`NEILL        CLOUDY    21   5  50 NW21G26   30.01R WCI   6
ORD            SUNNY     26  -1  31 N20       29.97R WCI  12
BROKEN BOW     SUNNY     28   5  37 NW18G28   29.95R WCI  15
BROWNLEE         N/A     18   0  45 NW15        N/A  WCI   3
SPRINGVIEW       N/A     19   4  51 NW12G20     N/A  WCI   7
BREWSTER         N/A     28   9  44 S20         N/A  WCI  15
ROSE             N/A     29  14  53 W21         N/A  WCI  15
NEWPORT          N/A     26  11  52 W18         N/A  WCI  13
SARGENT          N/A     25   5  41 N9G17       N/A  WCI  16
COMSTOCK         N/A     32   1  27 W20         N/A  WCI  20
CHAMBERS         N/A     22   2  42 N10G18      N/A  WCI  11
EWING            N/A     23   8  52 N12G21      N/A  WCI  12
$$

...OBSERVATIONS IN SOUTHWEST NEBRASKA AND FAR NORTHEAST COLORADO...

CITY           SKY/WX    TMP DP  RH WIND       PRES   REMARKS
WRAY           CLOUDY    31  13  47 N8        29.89S WCI  23
IMPERIAL         N/A     29   8  41 N15       29.91F WCI  18
OGALLALA       SUNNY     27   8  45 N9        29.93F WCI  18
NORTH PLATTE   SUNNY     27   6  41 N18G25    29.94R WCI  14
MCCOOK         SUNNY     34  10  37 N14       29.93R WCI  25
LEXINGTON      SUNNY     31   2  29 N20       29.94R WCI  19
PAXTON           N/A     27  12  52 N12         N/A  WCI  17
BRADY            N/A     29   6  36 MISG        N/A
GOTHENBURG       N/A     27   5  38 N12         N/A  WCI  17
CALLAWAY         N/A     25   6  44 N20         N/A  WCI  11
$$

...NORTH PLATTE AREA...

CITY           SKY/WX    TMP DP  RH WIND       PRES   REMARKS
AIRPORT        SUNNY     27   6  41 N18G25    29.94R WCI  14
DOWNTOWN         N/A     26   8  47 N9G23       N/A  WCI  17
$$

...SOME WEATHER OBSERVATIONS FROM AROUND THE REGION...

CITY           SKY/WX    TMP DP  RH WIND       PRES   REMARKS
DENVER         CLOUDY    19  14  81 E5        29.81F WCI  12
LARAMIE        CLOUDY    15   8  73 SE18G25   29.66R WCI  -2
CHEYENNE       LGT SNOW  12   4  70 NE9       29.77S WCI   0
SCOTTSBLUFF    CLOUDY    20   7  57 NW10      29.93R WCI   9
RAPID CITY     PTSUNNY   15   3  59 N25G32    29.94S WCI  -4
PIERRE         SUNNY     21   3  45 NW20G26   30.00S WCI   6
WINNER         FAIR      20   3  48 NW15      30.02S WCI   6
SIOUX FALLS    PTSUNNY   15   6  67 N20G30    29.99R BLWGSNOWWCI  -2
OMAHA          PTSUNNY   30  15  53 N21G31    29.93R WCI  17
GRAND ISLAND   PTSUNNY   29   2  31 N22G28    29.96R WCI  15
KANSAS CITY    CLOUDY    40  29  64 N7        29.87R
WICHITA        CLOUDY    44  28  53 NE12      29.86F
HAYS           CLOUDY    36  14  41 N17       29.90R WCI  25
LIBERAL        CLOUDY    39  30  70 NE18      29.83F WCI  30
GOODLAND       SUNNY     31  14  49 N14G22    29.86F WCI  21
$$



USA.gov is the U.S. government's official web portal to all federal, state and local government web resources and services.